[[{"header":{"parameterUnit":"m.s-1","parameterCategory":1,"la1":30.2991,"la2":30.254,"lo1":-89.0895,"lo2":-89.0444,"dy":0.0017,"dx":0.0017,"nx":28,"ny":28,"refTime":"2024-04-14T21:00:00:Z","depth":0,"parameterNumber":2,"parameterNumberName":"U-component_of_WINDS"},"data":[0,0,0,0,0,0,0,0,0,0,0,0,0,0,0,0,0,0,0,0,0,0,0,0,0,0,0,0,0,0,0,0,0,0,0,0,0,0,0,0,0,0,0,0,0,0,0,0,0,0,0,0,0,0,0,0,0,0,-0.4751,-0.4751,0,-0.4754,-0.4754,-0.4754,-0.4752,-0.4752,-0.4752,-0.4752,-0.4756,-0.4756,-0.4756,0,0,0,0,0,0,0,0,0,0,0,0,0,-0.4746,-0.4746,-0.4751,-0.4751,-0.4751,-0.4754,-0.4754,-0.4754,-0.4752,-0.4752,-0.4752,-0.4752,-0.4756,-0.4756,-0.4756,0,0,0,0,0,0,0,0,0,0,0,0,0,-0.4748,-0.4746,-0.4751,-0.475,-0.475,-0.4754,-0.4754,-0.4754,-0.4752,-0.4752,-0.4752,-0.4752,-0.4756,-0.4756,-0.4756,-0.476,0,0,-0.4757,-0.4757,0,0,0,0,0,0,0,0,-0.4748,-0.4749,-0.475,-0.475,-0.475,-0.4752,-0.4753,-0.4756,-0.4752,-0.4752,-0.4752,-0.4752,-0.4755,-0.4755,-0.4756,-0.476,-0.476,-0.4757,-0.4757,-0.4757,-0.4757,0,0,0,0,0,0,0,-0.4748,-0.4748,-0.4752,-0.475,-0.475,-0.4751,-0.4751,-0.4754,-0.4754,-0.4752,-0.4752,-0.4752,-0.4755,-0.4756,-0.4756,-0.476,-0.4757,-0.4757,-0.4757,-0.4757,-0.477,-0.477,0,0,0,0,0,0,-0.4748,-0.4748,-0.4752,-0.4752,-0.4749,-0.4751,-0.4751,-0.4752,-0.4754,-0.4754,-0.4752,-0.4752,-0.4755,-0.4756,-0.4756,-0.4761,-0.4757,-0.4757,-0.4758,-0.4769,-0.477,-0.477,0,0,0,0,0,0,-0.4748,-0.4748,-0.4752,-0.475,-0.4751,-0.4751,-0.4752,-0.4752,-0.4753,-0.4754,-0.4754,-0.4753,-0.4755,-0.4756,-0.4759,-0.4762,-0.4758,-0.4758,-0.4769,-0.4769,-0.477,-0.4772,0,0,0,0,0,0,-0.4747,-0.4748,-0.4749,-0.475,-0.4751,-0.4754,-0.4752,-0.4752,-0.4753,-0.4753,-0.4755,-0.4755,-0.4755,-0.4759,-0.476,-0.4762,-0.4758,-0.4769,-0.4769,-0.477,-0.4771,-0.4772,-0.4772,0,0,0,0,0,-0.4747,-0.4749,-0.4749,-0.4749,-0.4752,-0.4754,-0.4754,-0.4754,-0.4753,-0.4755,-0.4756,-0.4755,-0.4761,-0.4759,-0.476,-0.4762,-0.4769,-0.4769,-0.477,-0.4771,-0.4772,-0.4772,0,0,0,0,0,0,-0.4748,-0.4749,-0.4749,-0.4751,-0.4752,-0.4754,-0.4755,-0.4755,-0.4757,-0.4757,-0.4757,-0.4758,-0.4761,-0.4762,-0.476,-0.4767,-0.4765,-0.4766,-0.4766,-0.4767,-0.4767,-0.4767,-0.4758,0,0,0,0,0,-0.4748,-0.4749,-0.4751,-0.4753,-0.4753,-0.4754,-0.4755,-0.4755,-0.4757,-0.4758,-0.4759,-0.4761,-0.4764,-0.4765,-0.4768,-0.4772,-0.4773,-0.4774,-0.4775,-0.4775,-0.4775,-0.4779,-0.478,-0.4771,-0.4771,-0.4771,0,0,-0.4748,-0.475,-0.475,-0.4753,-0.4754,-0.4756,-0.4755,-0.4757,-0.4759,-0.4758,-0.4762,-0.4763,-0.4765,-0.477,-0.4771,-0.477,-0.4778,-0.4775,-0.4776,-0.4776,-0.4779,-0.478,-0.4781,-0.4771,-0.4771,-0.4771,0,0,-0.4751,-0.4751,-0.4753,-0.4755,-0.4757,-0.4758,-0.4758,-0.476,-0.4761,-0.4765,-0.4765,-0.4768,-0.4772,-0.4774,-0.4776,-0.4781,-0.4781,-0.4782,-0.4784,-0.4788,-0.4789,-0.4789,-0.4792,-0.4793,-0.4782,-0.4782,-0.4782,0,-0.4751,-0.4754,-0.4754,-0.4757,-0.4758,-0.4759,-0.4761,-0.4763,-0.4766,-0.4767,-0.4766,-0.4773,-0.4774,-0.4779,-0.4781,-0.4782,-0.4784,-0.4781,-0.4788,-0.4789,-0.479,-0.4792,-0.4793,-0.4782,-0.4782,-0.4782,-0.4782,0,-0.4755,-0.4757,-0.4758,-0.4761,-0.4763,-0.4766,-0.4768,-0.477,-0.477,-0.4772,-0.4776,-0.4779,-0.4782,-0.4783,-0.4784,-0.4789,-0.4789,-0.4788,-0.4786,-0.4791,-0.4793,-0.4794,-0.4783,-0.4783,-0.4783,-0.4783,0,0,-0.4755,-0.476,-0.476,-0.4762,-0.4766,-0.4768,-0.4771,-0.4775,-0.4777,-0.4779,-0.4783,-0.4787,-0.4787,-0.4789,-0.479,-0.4793,-0.4799,-0.4793,-0.4793,-0.4794,-0.4806,-0.4806,-0.4807,-0.4799,-0.4799,-0.4799,-0.4806,0,-0.4758,-0.4763,-0.4765,-0.4769,-0.4772,-0.4774,-0.4777,-0.478,-0.4782,-0.4785,-0.4787,-0.4791,-0.479,-0.4791,-0.4795,-0.4797,-0.4801,-0.4797,-0.4803,-0.4803,-0.4802,-0.4808,-0.4808,-0.4815,-0.4807,-0.4807,-0.4807,0,-0.4761,-0.4764,-0.4769,-0.4774,-0.4775,-0.4777,-0.4782,-0.4785,-0.4789,-0.479,-0.4793,-0.4794,-0.4799,-0.4798,-0.4805,-0.4802,-0.4805,-0.4806,-0.4807,-0.4807,-0.4805,-0.4809,-0.4816,-0.4817,-0.4808,-0.4808,-0.4808,0,-0.4762,-0.4767,-0.4771,-0.4773,-0.4778,-0.478,-0.4782,-0.4786,-0.4789,-0.4793,-0.4795,-0.4799,-0.4802,-0.4806,-0.4809,-0.4807,-0.4816,-0.4815,-0.4818,-0.4818,-0.4819,-0.4819,-0.4827,-0.4821,-0.4821,-0.4821,-0.4821,0,-0.4764,-0.4767,-0.4772,-0.4774,-0.4778,-0.4781,-0.4785,-0.4788,-0.4792,-0.4795,-0.4797,-0.4801,-0.4804,-0.4809,-0.4811,-0.4817,-0.4819,-0.482,-0.4821,-0.482,-0.482,-0.4821,-0.4821,-0.4822,-0.4821,-0.4821,-0.4821,0,-0.4765,-0.4768,-0.4773,-0.4777,-0.4779,-0.4782,-0.4786,-0.479,-0.4792,-0.4797,-0.4798,-0.4803,-0.4808,-0.4812,-0.4819,-0.4821,-0.4828,-0.4828,-0.4826,-0.4826,-0.483,-0.483,-0.4839,-0.4841,-0.4834,-0.4834,-0.4834,0,-0.4766,-0.4769,-0.4774,-0.4777,-0.4779,-0.4783,-0.4786,-0.479,-0.4793,-0.4799,-0.4801,-0.4807,-0.4812,-0.4821,-0.4825,-0.4831,-0.4832,-0.4835,-0.4833,-0.4832,-0.4832,-0.4832,-0.4833,-0.4835,-0.4835,-0.4835,-0.4835,0,-0.4768,-0.477,-0.4774,-0.4779,-0.4782,-0.4787,-0.4791,-0.4793,-0.4797,-0.4801,-0.4807,-0.481,-0.4818,-0.4824,-0.4831,-0.4834,-0.4836,-0.4836,-0.4837,-0.4836,-0.4835,-0.4836,-0.4827,-0.4836,-0.4836,-0.4835,-0.4835,-0.4835,-0.477,-0.4772,-0.4777,-0.4782,-0.4786,-0.479,-0.4793,-0.4797,-0.4802,-0.4808,-0.481,-0.4817,-0.4822,-0.4831,-0.4835,-0.4841,-0.484,-0.4842,-0.4842,-0.4843,-0.4843,-0.4835,-0.4842,-0.4842,-0.4842,-0.4842,-0.4842,0,-0.4772,-0.4776,-0.478,-0.4786,-0.479,-0.4792,-0.4797,-0.48,-0.4806,-0.4811,-0.4816,-0.4824,-0.483,-0.4835,-0.4842,-0.4846,-0.4847,-0.4848,-0.4847,-0.4848,-0.4843,-0.4841,-0.4847,-0.4847,-0.4847,-0.4847,-0.4847,-0.4847,-0.4774,-0.4779,-0.4782,-0.4789,-0.4793,-0.4799,-0.4802,-0.4807,-0.4811,-0.4819,-0.4824,-0.4828,-0.4834,-0.4842,-0.4848,-0.485,-0.4852,-0.4853,-0.4855,-0.4849,-0.4848,-0.4848,-0.4846,-0.4853,-0.4853,-0.486,-0.486,-0.486]},{"header":{"parameterUnit":"m.s-1","parameterCategory":1,"la1":30.2991,"la2":30.254,"lo1":-89.0895,"lo2":-89.0444,"dy":0.0017,"dx":0.0017,"nx":28,"ny":28,"refTime":"2024-04-14T21:00:00:Z","depth":0,"parameterNumber":3,"parameterNumberName":"V-component_of_WINDS"},"data":[0,0,0,0,0,0,0,0,0,0,0,0,0,0,0,0,0,0,0,0,0,0,0,0,0,0,0,0,0,0,0,0,0,0,0,0,0,0,0,0,0,0,0,0,0,0,0,0,0,0,0,0,0,0,0,0,0,0,3.8732,3.8731,0,3.8618,3.8617,3.8615,3.8615,3.8616,3.8618,3.8619,3.8496,3.8492,3.8487,0,0,0,0,0,0,0,0,0,0,0,0,0,3.8946,3.8942,3.8733,3.8731,3.873,3.8618,3.8617,3.8615,3.8614,3.8616,3.8618,3.862,3.8498,3.8492,3.8487,0,0,0,0,0,0,0,0,0,0,0,0,0,3.8844,3.8941,3.8733,3.8716,3.8714,3.8619,3.8617,3.8615,3.8614,3.8616,3.8619,3.8621,3.85,3.8493,3.8486,3.8398,0,0,3.8465,3.8462,0,0,0,0,0,0,0,0,3.885,3.8836,3.872,3.8717,3.8714,3.8633,3.8647,3.8542,3.8614,3.8652,3.8619,3.8622,3.854,3.8529,3.8503,3.8393,3.8387,3.8464,3.846,3.8457,3.8455,0,0,0,0,0,0,0,3.8857,3.8841,3.8687,3.8718,3.8715,3.8713,3.8701,3.8627,3.8584,3.8648,3.8648,3.8635,3.8538,3.851,3.85,3.8386,3.8464,3.8458,3.8454,3.8451,3.8198,3.8195,0,0,0,0,0,0,3.8868,3.8847,3.8691,3.8684,3.8789,3.8707,3.8694,3.8657,3.8585,3.8577,3.8633,3.8635,3.852,3.8508,3.8496,3.8389,3.8457,3.845,3.8446,3.82,3.8197,3.8195,0,0,0,0,0,0,3.8873,3.8854,3.8695,3.8765,3.8745,3.8701,3.8659,3.8653,3.8625,3.8574,3.8566,3.8612,3.8522,3.8506,3.8423,3.8385,3.8447,3.8441,3.8203,3.8199,3.8196,3.8174,0,0,0,0,0,0,3.8879,3.8856,3.8823,3.8765,3.8741,3.8626,3.8657,3.8649,3.8613,3.8615,3.8552,3.8543,3.8522,3.8433,3.8416,3.8376,3.8435,3.8207,3.8202,3.8197,3.8178,3.817,3.8163,0,0,0,0,0,3.8887,3.882,3.8822,3.8803,3.87,3.8624,3.861,3.8589,3.861,3.8576,3.8544,3.8545,3.8392,3.8425,3.8405,3.8363,3.8209,3.8203,3.8197,3.8181,3.8172,3.8163,0,0,0,0,0,0,3.8873,3.8812,3.8813,3.8726,3.8681,3.8624,3.858,3.8579,3.8525,3.8529,3.8503,3.8488,3.8406,3.8376,3.8414,3.8274,3.8303,3.8293,3.8297,3.8287,3.828,3.8289,3.843,0,0,0,0,0,3.8861,3.8806,3.8755,3.8683,3.866,3.8624,3.859,3.8578,3.8529,3.8509,3.847,3.8421,3.8362,3.8323,3.8265,3.8174,3.816,3.8135,3.8127,3.8122,3.8113,3.8063,3.8051,3.8176,3.8176,3.8176,0,0,3.8833,3.8793,3.876,3.8679,3.8642,3.8585,3.8608,3.8546,3.8502,3.8499,3.8419,3.8389,3.8332,3.8245,3.8205,3.8217,3.8076,3.8114,3.811,3.8105,3.8056,3.8044,3.8034,3.8172,3.8173,3.8173,0,0,3.8754,3.8718,3.8655,3.8618,3.8563,3.854,3.8524,3.8468,3.8449,3.8369,3.8365,3.8312,3.8211,3.8171,3.8137,3.8044,3.8043,3.8025,3.7986,3.7937,3.7928,3.7919,3.7886,3.7874,3.8017,3.8017,3.8017,0,3.8726,3.8641,3.8622,3.856,3.8525,3.8522,3.8457,3.8421,3.8349,3.8324,3.8339,3.8213,3.8174,3.8078,3.8055,3.8028,3.8009,3.8032,3.7931,3.7922,3.7913,3.7881,3.7869,3.8015,3.8016,3.8016,3.8016,0,3.861,3.8551,3.8506,3.8439,3.8398,3.8335,3.8305,3.8266,3.8258,3.8232,3.8151,3.8105,3.8038,3.8015,3.8005,3.7917,3.7926,3.7937,3.7965,3.79,3.787,3.7857,3.8013,3.8014,3.8014,3.8014,0,0,3.8518,3.8443,3.8426,3.8396,3.8335,3.8288,3.8225,3.8162,3.8129,3.8079,3.8024,3.7939,3.7949,3.7911,3.7896,3.7854,3.7783,3.7869,3.7867,3.7855,3.7683,3.7676,3.7662,3.7782,3.778,3.7778,3.7688,0,3.8432,3.8321,3.8303,3.8205,3.815,3.8146,3.8091,3.8047,3.8021,3.797,3.7941,3.7881,3.7899,3.7876,3.7833,3.7801,3.7748,3.7807,3.773,3.7728,3.7745,3.7646,3.7638,3.7555,3.7676,3.7674,3.7672,0,3.8317,3.8267,3.8165,3.8112,3.8088,3.8039,3.798,3.7931,3.7881,3.7865,3.7823,3.7814,3.7747,3.7778,3.7685,3.7725,3.7693,3.7672,3.7668,3.766,3.7696,3.7635,3.7528,3.7516,3.7653,3.7655,3.7656,0,3.8261,3.8168,3.8094,3.8069,3.8005,3.7971,3.7943,3.7895,3.7858,3.7806,3.7782,3.7722,3.7689,3.7642,3.7617,3.7642,3.7525,3.7554,3.7509,3.751,3.7485,3.7486,3.7371,3.7464,3.7464,3.7464,3.7464,0,3.8167,3.8104,3.8069,3.8023,3.7953,3.7932,3.7862,3.7834,3.7792,3.774,3.7732,3.7684,3.7653,3.76,3.7579,3.7505,3.749,3.7475,3.747,3.7476,3.7478,3.7454,3.7459,3.7461,3.7462,3.7462,3.7463,0,3.8092,3.8066,3.7986,3.7933,3.7919,3.7869,3.7823,3.7778,3.7754,3.7689,3.7672,3.7633,3.757,3.754,3.7461,3.7448,3.7363,3.7362,3.7381,3.7379,3.7336,3.7341,3.7201,3.7182,3.7288,3.7287,3.7286,0,3.8034,3.7986,3.7929,3.7896,3.7867,3.7812,3.7775,3.7752,3.7714,3.7654,3.7616,3.7554,3.7502,3.7401,3.7365,3.7304,3.7302,3.7257,3.7293,3.73,3.7301,3.7305,3.73,3.7251,3.725,3.7249,3.7248,0,3.7934,3.7924,3.7872,3.7816,3.7774,3.7728,3.7683,3.7655,3.7625,3.7582,3.7519,3.7479,3.74,3.7337,3.7275,3.7244,3.724,3.7238,3.7224,3.7229,3.7242,3.7235,3.7364,3.7241,3.7241,3.7242,3.7242,3.7243,3.7866,3.7823,3.7777,3.772,3.7684,3.7643,3.7599,3.757,3.7517,3.7452,3.7441,3.7374,3.7325,3.7241,3.7208,3.7154,3.7164,3.7144,3.7139,3.7135,3.7133,3.7251,3.7142,3.7142,3.7143,3.7143,3.7143,0,3.7765,3.7736,3.7684,3.7623,3.7578,3.7581,3.7531,3.7493,3.7434,3.739,3.734,3.7267,3.7207,3.7166,3.7104,3.7069,3.7066,3.7053,3.7056,3.7049,3.7127,3.7145,3.7057,3.7057,3.7057,3.7057,3.7057,3.7057,3.7708,3.7637,3.7621,3.7531,3.7502,3.7437,3.7409,3.737,3.7335,3.7254,3.7205,3.718,3.7136,3.7072,3.7016,3.7006,3.6983,3.6971,3.696,3.7034,3.7043,3.7052,3.7069,3.6966,3.6966,3.6887,3.6886,3.6885]}]]